COSMOS 1743

Last updated on Thu Nov 21 2024 00:02:12 GMT+0000 (Coordinated Universal Time)

1 16719U 86034A 24324.99895352 .00019409 00000+0 59024-3 0 9995 2 16719 82.5437 201.2391 0006669 182.7220 177.3988 15.33888209106975
UTC large
Height (km)
Speed (km/s)
/
Latitude / Longitude
Inclination (degrees)
Orbital Period (minutes)
Azimuth
Elevation
Range (km)
Doppler Factor

Next 0 passes for location: London (51.5072 / 0.1276)

Sorry there are no passes over London.